Weather in Bolshoye Maresevo

Russia / Republic of Mordovia     54°21′05″N   45°40′17″E
temp.,
°C
wind,
m/s
gust,
m/s
humid.,
%
clouds,
%
prec.,
mm/h
press.,
hPa
HPBL,
m
27 october, wed
wed2700:00+2wsw61467100 0.0 1023426
03:00+2wsw61566100 0.0 1022436
06:00+2sw61465100 0.0 1021396
09:00+3sw71458100 0.0 1020488
12:00+7sw81548100 0.0 1019692
15:00+7sw81550100 0.0 1017826
18:00+5sw8165094 0.0 1017718
21:00+4wsw8164996 0.0 1016686
28 october, thu
thu2800:00+3wsw81477100 0.2 1015899
03:00+6w71277100 0.3 1015847
06:00+5wsw61181100 0.0 1015530
09:00+6sw6108089 0.0 1015476
12:00+8wsw6964100 0.0 1014837
15:00+8sw61064100 0.0 1013843
18:00+6sw61186100 1.3 10131138
21:00+6w5991100 2.4 1013690
29 october, fri
fri2900:00+6nnw5789100 0.1 1016912
03:00+5n51087100 0.2 1019687
06:00+5n5987100 0.0 1023492
09:00+3nne347611 0.0 1026451
12:00+4n335618 0.0 1028654
15:00+5nnw224739 0.0 1029621
18:00+2sw1157100 0.0 103010
21:00+2sw3670100 0.0 1030126
30 october, sat
sat3000:00+4sw5127816 0.0 1030409
03:00+4wsw614825 0.0 1030373
06:00+3wsw6148234 0.0 1030338
09:00+5wsw7147443 0.0 1030415
12:00+9w8126183 0.0 1029560
15:00+9wsw61364100 0.0 1029526
18:00+7wsw6137364 0.0 1030334
21:00+6wsw513785 0.0 1031285
31 october, sun
sun3100:00+4wsw411835 0.0 1031238
03:00+3wsw310875 0.0 1032202
06:00+3wsw39905 0.0 1032173
09:00+5wsw410785 0.0 1032284
12:00+10wsw69585 0.0 1031487
15:00+10wsw510595 0.0 1030484
18:00+6wsw311775 0.0 1030211
21:00+4wsw39835 0.0 1031172